Regional Weather Roundup
Issued by NWS

Home | Current Version | Previous Version | Graphics & Text | Print | Product List | Glossary On
Versions: 1 2 3 4 5 6 7 8 9 10 11 12 13 14 15 16 17 18 19 20 21 22 23 24 25 26 27 28 29 30 31 32 33 34 35 36 37 38 39 40 41 42 43 44 45 46 47 48 49 50
000
ASUS43 KMPX 100810
RWRMN
WEATHER ROUNDUP FOR MINNESOTA
NATIONAL WEATHER SERVICE TWIN CITIES/CHANHASSEN MN
300 AM CDT THU JUL 10 2014


NOTE: "FAIR" INDICATES FEW OR NO CLOUDS BELOW 12,000 FEET WITH NO
SIGNIFICANT WEATHER AND/OR OBSTRUCTIONS TO VISIBILITY. N/A MEANS
CURRENT SKY AND/OR WEATHER CONDITIONS ARE NOT AVAILABLE.

MNZ060>063-068>070-100900-
   Twin Cities Metro

CITY           SKY/WX    TMP DP  RH WIND       PRES   REMARKS
TWIN CITIES    CLEAR     65  56  72 SE6       30.03R
ST PAUL        CLEAR     62  59  90 SE3       30.03S
CRYSTAL        CLEAR     61  55  81 CALM      30.01S
BLAINE         CLEAR     64  59  82 SE3       30.03R
LAKEVILLE      CLEAR     55  55 100 CALM      30.03S
EDEN PRAIRIE   CLEAR     64  57  78 S5        30.02R
SOUTH ST PAUL  CLEAR     63  59  89 CALM      30.03S
LAKE ELMO      FAIR      59  55  88 CALM      30.05R
$$
MNZ001>005-007-008-013>017-022>024-027-028-100900-
   Northwest Minnesota

CITY           SKY/WX    TMP DP  RH WIND       PRES   REMARKS
BEMIDJI        CLEAR     47  47  97 CALM      30.02R
HALLOCK        CLEAR     55  52  88 SE7       29.95S
ROSEAU         CLEAR     52  46  82 S3        29.98S
WARROAD        CLEAR     55  52  88 S3        29.98F FOG
THIEF RVR FALL CLEAR     54  48  82 CALM      29.99S
CROOKSTON      CLEAR     55  52  88 SE7       29.98S
FOSSTON        CLEAR     52  48  87 CALM      30.01S
DETROIT LAKES  CLEAR     57  54  88 CALM      30.02S
MOORHEAD       CLEAR     61  55  82 SE5       30.00R
PARK RAPIDS    CLEAR     53  52  96 CALM      30.01F
$$
MNZ006-009>011-018-025>026-100900-
   North Central Minnesota

CITY           SKY/WX    TMP DP  RH WIND       PRES   REMARKS
BAUDETTE       CLEAR     53  49  86 CALM      30.00S
FLAG ISLAND    CLEAR     61  55  82 CALM      29.96S
INTL FALLS     CLEAR     47  45  93 CALM      30.00S
WASKISH        CLEAR     50  48  93 CALM      30.01R
LONGVILLE      CLEAR     50  50 100 CALM      30.02S
GRAND RAPIDS   CLEAR     50  48  93 CALM      30.03R
CRANE LAKE     MOCLDY    46  45  93 CALM      30.04S
ORR            CLEAR     54  46  76 E3        30.00S
COOK           CLEAR     48  46  93 CALM      30.03S
$$
MNZ012-019>021-037-100900-
   Northeast Minnesota

CITY           SKY/WX    TMP DP  RH WIND       PRES   REMARKS
DULUTH         PTCLDY    57  48  72 S3        30.05R
ELY            CLEAR     46  43  87 CALM      30.04S
HIBBING        FOG       47  45  93 CALM      30.04R VSB 1/2
EVELETH        CLEAR     46  46 100 CALM      30.05R
DULUTH HARBOR  CLEAR     55  52  88 NE5       30.05R
TWO HARBORS    CLEAR     46  41  81 CALM      30.03S
SILVER BAY     CLEAR     43  43 100 CALM      30.04R
GRAND MARAIS     N/A     43  42  97 CALM      30.04R
G MARAIS ARPRT CLEAR     43  39  87 CALM      30.07S
$$
MNZ029>031-032-039>041-046>048-054>057-064-100900-
   West Central Minnesota

CITY           SKY/WX    TMP DP  RH WIND       PRES   REMARKS
FERGUS FALLS   CLEAR     61  50  67 SE5       30.01R
WHEATON        CLEAR     57  52  82 SE7       30.02S
MORRIS         CLEAR     55  54  94 SE3       30.00S
ALEXANDRIA     CLEAR     57  53  86 CALM      30.03F
ELBOW LAKE     FAIR      61  52  72 SE6       30.01S
WADENA         CLEAR     50  48  93 CALM      30.01F
GLENWOOD       CLEAR     57  54  88 CALM      30.03S
APPLETON       CLEAR     57  54  88 CALM      30.01S
BENSON         CLEAR     55  54  94 CALM      30.02S FOG
ORTONVILLE     CLEAR     61  55  82 SE3       30.01S
MADISON        CLEAR     61  55  82 CALM      30.01S
WILLMAR        FAIR      61  52  72 CALM      30.04R
$$
MNZ033>034-036-042>043-049>051-058-059-100900-
   Central Minnesota

CITY           SKY/WX    TMP DP  RH WIND       PRES   REMARKS
ST CLOUD       CLEAR     57  54  89 CALM      30.01S
SAUK CENTRE    FAIR      54  53  95 CALM      30.03S
PAYNESVILLE    CLEAR     50  50 100 CALM      30.04R
AITKIN         HAZE      52  46  82 CALM      30.02R VSB 1
PINE RIVER     CLEAR     52  48  87 CALM      30.05S
BRAINERD       CLEAR     56  51  84 CALM      30.03S
STAPLES        CLEAR     52  50  93 CALM      30.02S
LONG PRAIRIE   FAIR      50  50 100 CALM      30.03S
LITTLE FALLS   CLEAR     50  48  93 CALM      30.02S
LITCHFIELD     CLEAR     57  57 100 CALM      30.03S
BUFFALO        CLEAR     62  56  79 CALM      30.03S
MAPLE LAKE     CLEAR     60  58  91 CALM      30.03R
$$
MNZ037-044-045-052-053-100900-
   East Central Minnesota

CITY           SKY/WX    TMP DP  RH WIND       PRES   REMARKS
PRINCETON      PTCLDY    57  55  94 CALM      30.03R
MORA           PTCLDY    52  50  93 CALM      30.05R
CAMBRIDGE      CLEAR     57  50  77 CALM      30.01S
RUSH CITY      MOCLDY    57  55  90 SE3       30.04R
MOOSE LAKE     MOCLDY    50  50 100 CALM      30.03R FOG
HINCKLEY       FAIR      52  52 100 CALM      30.04R
CLOQUET        MOCLDY    54  50  87 CALM      30.05R
MCGREGOR       PTCLDY    52  50  93 CALM      30.04R
$$
MNZ071>073-080-081-089-090-097-098-100900-
   Southwest Minnesota

CITY           SKY/WX    TMP DP  RH WIND       PRES   REMARKS
MONTEVIDEO     PTCLDY    61  54  77 S5        30.02S
GRANITE FALLS  PTCLDY    61  52  72 SE3       30.03S
CANBY          CLEAR     57  55  92 CALM      30.02S
MARSHALL       CLEAR     59  52  77 MISG      30.01S
REDWOOD FALLS  PTCLDY    61  53  75 CALM      30.01S
OLIVIA         CLEAR     59  50  72 SE5       30.01S
PIPESTONE      CLEAR     63  54  72 SE6       30.01F
WINDOM         CLEAR     57  54  88 CALM      30.02F
WORTHINGTON    CLEAR     63  57  82 S5        30.03S
JACKSON        CLEAR     59  54  82 E3        30.03S
TRACY          CLEAR     64  52  65 S5        30.01F
SLAYTON        CLEAR     60  55  83 CALM      30.03S
$$
MNZ065>067-074>077-082>085-091>093-100900-
   South Central Minnesota

CITY           SKY/WX    TMP DP  RH WIND       PRES   REMARKS
MANKATO        MOCLDY    63  54  72 SE7       30.03S
NEW ULM        CLEAR     59  55  88 CALM      30.02S
ST JAMES       PTCLDY    61  55  82 CALM      30.03S
FAIRMONT       CLEAR     61  52  72 S3        30.02F
GLENCOE        CLEAR     60  53  76 CALM      30.02S
FARIBAULT      CLEAR     64  54  68 S3        30.04S
OWATONNA       CLEAR     61  55  82 SE7       30.04S
WASECA         PTCLDY    59  52  77 SE5       30.05S
ALBERT LEA     CLEAR     63  57  82 CALM      30.04S
$$
MNZ078>079-086>088-094>096-100900-
   Southeast Minnesota

CITY           SKY/WX    TMP DP  RH WIND       PRES   REMARKS
ROCHESTER      CLEAR     59  54  83 SE7       30.06F
RED WING       CLEAR     61  57  88 SE3       30.03S
STANTON        PTCLDY    59  55  88 SW5       30.02S
DODGE CENTER   CLEAR     59  55  88 S3        30.05S
WINONA         PTCLDY    61  57  88 CALM      30.06S
AUSTIN         PTCLDY    61  55  82 CALM      30.05R
PRESTON        CLEAR     61  56  82 SE5       30.07S
$$
ABBREVIATIONS USED IN REMARKS
   TC - TEMPERATURES IN CELSIUS
  WCI - WIND CHILL INDEX
   HX - HEAT INDEX
  VSB - VISIBILITY
$$



USA.gov is the U.S. government's official web portal to all federal, state and local government web resources and services.